ZF1RC George Town KY current weather conditions

sailwx.info

Wind from 042 at 1 knots gusting 1

Air temperature 33.9° C
Dewpoint 25.3° C

Last reported at 2020-Aug-07 18:00 UTC.
Time now 2020-Aug-07 19:09 UTC

Location: N 19°16' W 081°23'.
View on Google Maps.

See reports from other nearby stations

  
Tides and Currents Weather Stations Pressure Air Temp Water Temp Dewpoint Dewpoint Depression Visibility Wind Speed Wind Dir Waves Ship Positions
date/time (UTC)wind fromknots sea level pressurealtimeterstation pressurevisibilityair tempwater tempwave heightnotes
2020-Aug-07 18:00 042 1 gusting 1 33.9
2020-Aug-07 17:30 031 1 gusting 1 33.9
2020-Aug-07 17:00 211 0 gusting 4 33.9
2020-Aug-07 16:30 081 1 gusting 2 33.3
2020-Aug-07 15:30 004 0 gusting 4 33.3
2020-Aug-07 15:00 301 0 gusting 6 32.8
2020-Aug-07 14:30 085 0 gusting 5 31.7
2020-Aug-07 14:00 094 3 gusting 7 31.7
2020-Aug-07 13:30 128 2 gusting 6 31.1
2020-Aug-07 13:00 060 4 gusting 6 30.6
2020-Aug-07 12:30 085 1 gusting 4 29.4
2020-Aug-07 12:00 038 1 gusting 4 27.8
2020-Aug-07 11:30 076 1 gusting 2 27.2
2020-Aug-07 11:00 069 2 gusting 2 27.2
2020-Aug-07 10:00 087 1 gusting 1 26.7
2020-Aug-07 09:30 058 0 gusting 1 26.7
2020-Aug-07 09:00 103 0 gusting 2 27.2
2020-Aug-07 08:30 070 0 gusting 1 27.2
2020-Aug-07 08:00 088 0 gusting 2 27.2
2020-Aug-07 07:30 108 0 gusting 2 27.2
2020-Aug-07 07:00 077 0 gusting 1 27.2
2020-Aug-07 06:30 085 0 gusting 2 27.8
2020-Aug-07 06:00 094 1 gusting 2 27.8
2020-Aug-07 05:30 083 0 gusting 1 27.8
2020-Aug-07 05:00 088 27.8
2020-Aug-07 04:30 130 27.8
2020-Aug-07 04:00 117 0 gusting 2 27.8
2020-Aug-07 03:30 066 1 gusting 2 27.8
2020-Aug-07 03:00 087 28.3
2020-Aug-07 02:30 078 28.3
2020-Aug-07 02:00 090 2 gusting 2 28.3
2020-Aug-07 01:30 084 1 gusting 2 28.3
2020-Aug-07 01:00 044 2 gusting 2 28.9
2020-Aug-07 00:30 049 1 gusting 2 28.9
2020-Aug-07 00:00 112 2 gusting 5 29.4
2020-Aug-06 23:30 088 0 gusting 4 30.0
2020-Aug-06 23:00 160 31.7
2020-Aug-06 22:00 022 0 gusting 1 32.8
2020-Aug-06 21:30 138 0 gusting 1 33.3
2020-Aug-06 21:00 101 0 gusting 1 33.9
2020-Aug-06 20:30 177 33.9
2020-Aug-06 19:30 016 0 gusting 2 33.9
2020-Aug-06 18:30 218 0 gusting 1 33.9
2020-Aug-06 18:00 264 0 gusting 2 33.9
2020-Aug-06 17:30 152 1 gusting 1 33.9
2020-Aug-06 17:00 220 1 gusting 2 32.8
2020-Aug-06 16:30 057 0 gusting 2 33.3
2020-Aug-06 16:00 129 0 gusting 4 32.8
2020-Aug-06 15:30 227 1 gusting 4 33.3
2020-Aug-06 15:00 152 2 gusting 4 33.3
2020-Aug-06 14:30 063 0 gusting 6 32.8
2020-Aug-06 14:00 086 4 gusting 5 31.1
2020-Aug-06 13:30 142 1 gusting 5 31.1
2020-Aug-06 13:00 097 0 gusting 5 30.6
2020-Aug-06 12:30 175 1 gusting 5 29.4
2020-Aug-06 12:00 091 2 gusting 4 28.3
2020-Aug-06 11:30 055 2 gusting 4 27.2
2020-Aug-06 11:00 102 1 gusting 2 26.7
2020-Aug-06 10:30 074 1 gusting 2 26.7
2020-Aug-06 10:00 079 1 gusting 2 26.7
2020-Aug-06 09:30 094 0 gusting 2 26.7
2020-Aug-06 09:00 091 1 gusting 2 26.7
2020-Aug-06 08:30 113 1 gusting 4 27.2
2020-Aug-06 08:00 066 2 gusting 2 26.7
2020-Aug-06 07:30 038 2 gusting 2 26.7
2020-Aug-06 07:00 110 1 gusting 2 26.7
2020-Aug-06 06:30 076 1 gusting 2 26.7
2020-Aug-06 05:30 049 2 gusting 5 27.2
2020-Aug-06 05:00 090 2 gusting 4 26.7
2020-Aug-06 04:30 092 1 gusting 2 26.7
2020-Aug-06 04:00 083 1 gusting 4 26.7
2020-Aug-06 03:30 100 2 gusting 2 26.1
2020-Aug-06 03:00 122 0 gusting 1 25.6
2020-Aug-06 02:30 099 0 gusting 1 25.6
2020-Aug-06 02:00 069 0 gusting 5 25.6
2020-Aug-06 01:30 145 1 gusting 5 25.6
2020-Aug-06 00:30 084 2 gusting 4 23.9
2020-Aug-06 00:00 057 0 gusting 2 26.1
2020-Aug-05 23:30 332 26.7
2020-Aug-05 23:00 223 4 gusting 7 26.7
2020-Aug-05 22:30 257 4 gusting 6 31.7
2020-Aug-05 21:30 104 1 gusting 4 32.8
2020-Aug-05 21:00 162 1 gusting 6 33.3
2020-Aug-05 20:30 058 1 gusting 6 33.3
2020-Aug-05 20:00 110 1 gusting 6 34.4
2020-Aug-05 19:30 156 0 gusting 2 34.4
2020-Aug-05 19:00 085 1 gusting 5 33.9